Location: Podia
(1.5569°N, 32.3469°E)
Time: 08:38:09
(UTC+00:00)

Envisat - Visible Passes

Search period start: 11 May 2021 00:00
Search period end: 21 May 2021 00:00
Orbit: 764 x 766 km, 98.1° (Epoch: 10 May)

Date Brightness Start Highest point End Pass type
(mag) Time Alt. Az. Time Alt. Az. Time Alt. Az.
11 May 4.5 02:27:32 10° NE 02:32:09 36° ESE 02:36:47 10° SSE visible
12 May 5.8 01:53:18 10° ENE 01:55:27 13° ESE 01:57:35 10° SE visible
13 May 3.2 02:52:24 10° NNE 02:57:27 77° E 03:02:33 10° S visible
14 May 5.0 02:16:32 10° NE 02:20:44 27° ESE 02:24:57 10° SSE visible
16 May 3.7 02:41:05 10° NNE 02:46:02 56° ESE 02:51:00 10° S visible
17 May 5.5 02:05:43 10° ENE 02:09:19 20° ESE 02:12:54 10° SSE visible
18 May 3.0 03:06:18 10° N 03:11:20 70° WNW 03:16:23 10° SSW visible
19 May 4.3 02:29:53 10° NNE 02:34:36 40° ESE 02:39:21 10° S visible
20 May 5.7 01:55:16 10° ENE 01:57:53 14° ESE 02:00:31 10° SE visible
